Weather History for Alexandria, MN

Change the Weather History Date:

Saturday, December 15, 2012

  Actual Average Record
Temperature  
Mean Temperature 30 °F -  
Max Temperature 34 °F 23 °F 46 °F (1959)
Min Temperature 24 °F 7 °F -20 °F (1961)
Degree Days  
Heating Degree Days 35    
Moisture  
Dew Point 30 °F    
Average Humidity 88    
Maximum Humidity 96    
Minimum Humidity 79    
Precipitation  
Precipitation 0.27 in - - ()
Sea Level Pressure  
Sea Level Pressure 29.61 in    
Wind  
Wind Speed 9 mph (NNE)    
Max Wind Speed 16 mph    
Max Gust Speed -    
Visibility 3 miles    
Events Rain , Snow    
Averages and records for this station are not official NWS values.
T = Trace of Precipitation, MM = Missing Value Source: NWS Daily Summary

Daily Weather History Graph

Daily Weather History Graph

Search for Another Location

Airport:

Trip Planner

Search our weather history database for the weather conditions in past years. The results will help you decide how hot, cold, wet, or windy it might be!

Date:

Astronomy

Dec. 15, 2012 Rise Set
Actual Time 7:56 AM CST 4:37 PM CST
Civil Twilight 7:22 AM CST 5:11 PM CST
Nautical Twilight 6:44 AM CST 5:49 PM CST
Astronomical Twilight 6:07 AM CST 6:26 PM CST
Moon 9:44 AM CST (12/15) 7:49 PM CST (12/15)
Length of Visible Light 9h 49m
Length of Day
8h 40m
Waxing Crescent, 8% of the Moon is Illuminated
Dec 15
Waxing Crescent
Dec 19
First Quarter
Dec 28
Full
Jan 4
Last Quarter
Jan 11
New

Hourly Weather History & Observations

Time (CST) Temp. Windchill Dew Point Humidity Pressure Visibility Wind Dir Wind Speed Gust Speed Precip Events Conditions
12:53 AM 30.0 °F 19.5 °F 24.1 °F 79% 29.75 in 8.0 mi ESE 13.8 mph - N/A   Clear
1:53 AM 30.9 °F 22.2 °F 26.1 °F 82% 29.73 in 8.0 mi ESE 10.4 mph - N/A   Mostly Cloudy
2:53 AM 33.1 °F 25.5 °F 28.0 °F 82% 29.70 in 7.0 mi ESE 9.2 mph - N/A   Overcast
3:53 AM 33.1 °F 24.9 °F 28.0 °F 82% 29.70 in 8.0 mi ESE 10.4 mph - N/A   Overcast
4:53 AM 34.0 °F 25.5 °F 28.9 °F 82% 29.70 in 8.0 mi ESE 11.5 mph - N/A   Overcast
5:15 AM 33.8 °F 26.4 °F 30.2 °F 87% 29.63 in 6.0 mi ESE 9.2 mph - N/A   Overcast
6:41 AM 33.8 °F 26.4 °F 30.2 °F 87% 29.61 in 2.0 mi East 9.2 mph - 0.02 in   Overcast
6:49 AM 33.8 °F 25.8 °F 30.2 °F 87% 29.61 in 2.0 mi East 10.4 mph - 0.02 in   Overcast
6:53 AM 33.1 °F 24.4 °F 30.9 °F 92% 29.66 in 2.0 mi East 11.5 mph - 0.02 in   Overcast
7:00 AM 33.8 °F 25.8 °F 30.2 °F 87% 29.61 in 2.5 mi East 10.4 mph - 0.01 in   Overcast
7:28 AM 33.8 °F 26.4 °F 30.2 °F 87% 29.60 in 3.0 mi East 9.2 mph - 0.02 in   Overcast
7:43 AM 33.8 °F 27.0 °F 30.2 °F 87% 29.60 in 2.5 mi East 8.1 mph - 0.03 in Rain Light Rain
7:50 AM 33.8 °F 25.8 °F 30.2 °F 87% 29.59 in 3.0 mi East 10.4 mph - 0.03 in Rain Light Rain
7:53 AM 33.1 °F 25.5 °F 30.9 °F 92% 29.65 in 3.0 mi East 9.2 mph - 0.03 in   Overcast
8:04 AM 33.8 °F 26.4 °F 30.2 °F 87% 29.59 in 2.0 mi East 9.2 mph - 0.01 in   Overcast
8:14 AM 33.8 °F 26.4 °F 30.2 °F 87% 29.59 in 1.5 mi ENE 9.2 mph - 0.01 in   Overcast
8:53 AM 33.1 °F 25.5 °F 30.9 °F 92% 29.64 in 1.5 mi ENE 9.2 mph - 0.04 in Rain Light Rain
9:21 AM 33.8 °F 26.4 °F 30.2 °F 87% 29.58 in 2.0 mi ENE 9.2 mph - 0.03 in   Overcast
9:53 AM 33.1 °F 26.1 °F 30.9 °F 92% 29.64 in 2.0 mi ENE 8.1 mph - 0.05 in   Overcast
10:07 AM 33.8 °F 27.7 °F 30.2 °F 87% 29.59 in 1.5 mi ENE 6.9 mph - 0.02 in Snow Light Snow
10:16 AM 33.8 °F 27.7 °F 30.2 °F 87% 29.59 in 1.0 mi ENE 6.9 mph - 0.03 in Snow Light Snow
10:25 AM 33.8 °F 27.7 °F 30.2 °F 87% 29.59 in 0.8 mi ENE 6.9 mph - 0.03 in Snow Light Snow
10:36 AM 33.8 °F 28.6 °F 30.2 °F 87% 29.59 in 1.0 mi NE 5.8 mph - 0.04 in Snow Light Snow
10:46 AM 33.8 °F 28.6 °F 30.2 °F 87% 29.58 in 0.8 mi NE 5.8 mph - 0.04 in Snow Light Snow
10:53 AM 33.1 °F 28.7 °F 32.0 °F 96% 29.63 in 1.0 mi NE 4.6 mph - 0.05 in Snow Light Snow
11:53 AM 33.1 °F 28.7 °F 32.0 °F 96% 29.61 in 1.2 mi NNE 4.6 mph - 0.01 in Snow Light Snow
12:53 PM 33.1 °F 27.7 °F 30.9 °F 92% 29.59 in 1.0 mi NNE 5.8 mph - 0.02 in Snow Light Snow
1:50 PM 33.8 °F 27.7 °F 30.2 °F 87% 29.52 in 1.5 mi North 6.9 mph - 0.01 in Snow Light Snow
1:53 PM 33.1 °F 26.9 °F 30.9 °F 92% 29.57 in 1.5 mi North 6.9 mph - 0.01 in Snow Light Snow
2:53 PM 33.1 °F 26.9 °F 30.9 °F 92% 29.57 in 2.0 mi North 6.9 mph - 0.01 in   Overcast
3:26 PM 33.8 °F 27.7 °F 30.2 °F 87% 29.53 in 1.5 mi North 6.9 mph - 0.00 in Snow Light Snow
3:53 PM 33.1 °F 26.9 °F 30.9 °F 92% 29.58 in 2.5 mi North 6.9 mph - 0.00 in   Overcast
4:00 PM 33.8 °F 28.6 °F 30.2 °F 87% 29.54 in 3.0 mi North 5.8 mph - N/A   Overcast
4:07 PM 33.8 °F 28.6 °F 30.2 °F 87% 29.54 in 1.8 mi North 5.8 mph - 0.00 in Snow Light Snow
4:17 PM 33.8 °F 27.7 °F 30.2 °F 87% 29.54 in 2.0 mi North 6.9 mph - 0.00 in Snow Light Snow
4:31 PM 33.8 °F 28.6 °F 30.2 °F 87% 29.55 in 3.0 mi North 5.8 mph - 0.00 in   Overcast
4:40 PM 33.8 °F 28.6 °F 30.2 °F 87% 29.55 in 2.0 mi North 5.8 mph - 0.00 in Snow Light Snow
4:51 PM 33.8 °F 27.7 °F 30.2 °F 87% 29.56 in 3.0 mi NNW 6.9 mph - 0.01 in Snow Light Snow
4:53 PM 33.1 °F 26.9 °F 30.9 °F 92% 29.60 in 3.0 mi NNW 6.9 mph - 0.01 in Snow Light Snow
4:57 PM 33.8 °F 28.6 °F 30.2 °F 87% 29.56 in 2.5 mi NNW 5.8 mph - 0.00 in Snow Light Snow
5:46 PM 33.8 °F 28.6 °F 30.2 °F 87% 29.57 in 1.8 mi NNW 5.8 mph - 0.01 in Snow Light Snow
5:53 PM 33.1 °F 27.7 °F 30.9 °F 92% 29.62 in 1.8 mi NNW 5.8 mph - 0.02 in Snow Light Snow
6:05 PM 33.8 °F 27.7 °F 30.2 °F 87% 29.57 in 2.0 mi NNW 6.9 mph - 0.00 in Snow Light Snow
6:38 PM 33.8 °F 26.4 °F 30.2 °F 87% 29.57 in 4.0 mi NNW 9.2 mph - 0.00 in Snow Light Snow
6:53 PM 33.1 °F 25.5 °F 30.9 °F 92% 29.63 in 6.0 mi NNW 9.2 mph - 0.00 in   Overcast
7:53 PM 32.0 °F 24.2 °F 30.0 °F 92% 29.64 in 3.0 mi NNW 9.2 mph - N/A   Overcast
8:53 PM 30.9 °F 19.8 °F 28.9 °F 92% 29.65 in 4.0 mi NW 16.1 mph - N/A   Overcast
9:53 PM 28.9 °F 18.2 °F 26.1 °F 89% 29.65 in 3.0 mi NW 13.8 mph - N/A   Overcast
10:08 PM 28.4 °F 17.5 °F 26.6 °F 93% 29.60 in 2.5 mi NW 13.8 mph - N/A   Overcast
10:53 PM 26.1 °F 15.6 °F 25.0 °F 96% 29.66 in 2.5 mi NNW 11.5 mph - N/A   Overcast
11:53 PM 24.1 °F 12.5 °F 21.9 °F 91% 29.67 in 1.8 mi NW 12.7 mph - N/A   Overcast